This is the latest recevied weather packets stored in our database for station/object KF0EZB. If no packets are shown the sender has not sent any weather packets the latest 10 day(s).
| Time | Temp. | Humidity | Pressure | Rain* | Wind** | Luminosity | Snow |
|---|---|---|---|---|---|---|---|
| 1777250765 | 15° C | 94% | 1002.6 hPa | 0 mm | - | 1 W/m² | - |
| 1777250462 | 15° C | 93% | 1002.3 hPa | 0 mm | - | 5 W/m² | - |
| 1777250156 | 15° C | 93% | 1002.2 hPa | 0 mm | - | 10 W/m² | - |
| 1777249853 | 15° C | 93% | 1001.9 hPa | 0 mm | - | 14 W/m² | - |
| 1777249549 | 15° C | 92% | 1001.9 hPa | 0 mm | - | 11 W/m² | - |
| 1777249246 | 15° C | 92% | 1001.8 hPa | 0 mm | - | 15 W/m² | - |
| 1777248944 | 15° C | 91% | 1002.1 hPa | 0 mm | - | 17 W/m² | - |
| 1777248640 | 15° C | 91% | 1002.4 hPa | 0 mm | - | 26 W/m² | - |
| 1777248336 | 15° C | 91% | 1002 hPa | 0 mm | - | 38 W/m² | - |
| 1777248032 | 15° C | 91% | 1002.3 hPa | 0 mm | - | 52 W/m² | - |
| 1777247726 | 15° C | 91% | 1002.7 hPa | 0 mm | - | 60 W/m² | - |
| 1777247423 | 15° C | 90% | 1002.4 hPa | 0 mm | - | 64 W/m² | - |
| 1777247121 | 15° C | 90% | 1002.8 hPa | 0 mm | - | 54 W/m² | - |
| 1777246818 | 15° C | 90% | 1002.7 hPa | 0 mm | - | 58 W/m² | - |
| 1777246513 | 15° C | 89% | 1003 hPa | 0 mm | - | 57 W/m² | - |
| 1777246211 | 15° C | 89% | 1003.1 hPa | 0 mm | - | 60 W/m² | - |
| 1777245909 | 15° C | 89% | 1003 hPa | 0 mm | - | 93 W/m² | - |
| 1777245607 | 15° C | 89% | 1002.9 hPa | 0 mm | - | 124 W/m² | - |
| 1777245303 | 15° C | 89% | 1002.8 hPa | 0 mm | - | 109 W/m² | - |
| 1777244998 | 15° C | 90% | 1002.8 hPa | 0 mm | - | 107 W/m² | - |
| 1777244694 | 15° C | 90% | 1002.9 hPa | 0 mm | - | 124 W/m² | - |
| 1777244390 | 15° C | 91% | 1003.5 hPa | 0 mm | - | 119 W/m² | - |
| 1777244087 | 14.44° C | 91% | 1003.1 hPa | 0 mm | - | 134 W/m² | - |
| 1777243785 | 14.44° C | 91% | 1003.1 hPa | 0 mm | - | 180 W/m² | - |
| 1777243482 | 14.44° C | 91% | 1003.4 hPa | 0 mm | - | 108 W/m² | - |
* Rain latest hour (hover to see other rain measurements)
** Current wind speed in m/s (hover to see current wind gust speed)